Flag for Canada Weather past 2 weeks in Yarmouth County, Nova Scotia, Canada

Now
45 °F

Sprinkles. Fog.


Feels Like: 37 °F
Forecast: 45 / 48 °F
Wind: 16 mph from East

Location: Yarmouth

Current Time: Jun 2, 2015 at 10:47:15 AM

Latest Report: Jun 2, 2015 at 10:00 AM


Visibility: 3 mi

Pressure: 30.16 "Hg

Humidity: 93%

Dew point: 43 °F

Location of Yarmouth CountyLocation

Historic Weather in Yarmouth County — Graph

°F

Yarmouth County temperature yesterday

Maximum temperature yesterday: 50 °F (at 1:00 PM)
Minimum temperature yesterday: 45 °F (at 4:00 AM)
Average temperature yesterday: 46 °F

Past Weeks' High & Low Weather Summary

 TemperatureHumidityPressure
High66 °F (May 29, 12:00 PM)100% (May 19, 6:46 PM)30.33 "Hg (May 19, 6:46 PM)
Low37 °F (May 19, 6:00 AM)42% (May 18, 11:00 AM)29.58 "Hg (May 20, 4:00 PM)
Average51 °F87%30.10 "Hg
* Reported May 18 9:00 AM — Jun 2 9:00 AM, Yarmouth County, Weather by CustomWeather, © 2015

Note: Actual official high and low records may vary slightly from our data, if they occured in-between our weather recording intervals... More about our weather records

Advertising

Yarmouth County weather history for previous 24 hours

 ConditionsComfort  
Time TempWeatherWind HumidityBarometerVisibility
9:00 AM
Tue, Jun 2
45 °FSprinkles. Fog.18 mph100%30.18 "Hg4 mi
8:00 AM45 °FRain showers. Fog.14 mph100%30.22 "Hg3 mi
7:00 AM45 °FSprinkles. Low clouds.15 mph100%30.22 "Hg2 mi
6:00 AM45 °FRain showers. Low clouds.16 mph100%30.21 "Hg3 mi
5:00 AM45 °FSprinkles. Low clouds.16 mph93%30.22 "Hg9 mi
4:00 AM45 °FSprinkles. Mostly cloudy.12 mph93%30.25 "Hg9 mi
3:00 AM45 °FSprinkles. Low clouds.14 mph93%30.27 "Hg9 mi
2:00 AM45 °FSprinkles. Low clouds.15 mph93%30.27 "Hg9 mi
1:00 AM45 °FSprinkles. Low clouds.10 mph100%30.29 "Hg9 mi
12:00 AM45 °FSprinkles. Fog.12 mph100%30.30 "Hg4 mi
11:00 PM
Mon, Jun 1
45 °FSprinkles. Fog.12 mph93%30.31 "Hg4 mi
10:00 PM45 °FSprinkles. Fog.17 mph93%30.31 "Hg4 mi
9:00 PM45 °FSprinkles. Fog.17 mph100%30.30 "Hg4 mi
8:00 PM45 °FSprinkles. Fog.12 mph100%30.31 "Hg3 mi
7:00 PM46 °FSprinkles. Fog.10 mph93%30.31 "Hg3 mi
6:00 PM46 °FSprinkles. Fog.14 mph93%30.31 "Hg3 mi
5:00 PM46 °FSprinkles. Overcast.14 mph93%30.28 "Hg8 mi
4:00 PM46 °FSprinkles. Overcast.16 mph93%30.28 "Hg12 mi
3:00 PM48 °FOvercast.13 mph94%30.29 "Hg15 mi
2:00 PM48 °FSprinkles. Low clouds.16 mph94%30.29 "Hg15 mi
1:00 PM50 °FLow clouds.15 mph88%30.29 "Hg12 mi
12:00 PM46 °FSprinkles. Fog.15 mph100%30.30 "Hg5 mi
11:00 AM46 °FSprinkles. Fog.12 mph93%30.33 "Hg2 mi
10:00 AM46 °FSprinkles. Fog.14 mph93%30.29 "Hg6 mi
Weather by CustomWeather, © 2015

See weather overviewHow to use our weather pages